Find Starlink 32282

NORAD ID: 61006 Int'l Des: 2024-158 Owner: SPXS Country: US Constellation: starlink operational
LEOCIRCULAR

当前视图

正在加载3D地球...

About Starlink 32282

Starlink 32282 (NORAD 61006) is a starlink constellation satellite (v2 mini) launched Sep 5, 2024 by SPXS of US. It operates in LEO, CIRCULAR orbit with a mass of 730.00 kg.

即将过境

Passes for default location (London). Set your location on the main map for personalized predictions.

高度历史

Loading altitude history...

两行轨道根数

1 61006U 24158S 26236.35718752 -.00000653 00000-0 -81855-5 0 9998
2 61006 53.1603 4.4781 0001384 104.5786 255.5370 15.34393393111355
Epoch: Aug 24, 2026 • Age: 28 hours

当前状态

高度 477.9 km
远地点 / 近地点 N/A
速度 7.63 km/s
星下点 -43.30°S, 67.17°E
发射日期 Sep 5, 2024
运行时间 1.9 years
类型 internet

技术详情

分类 Payload
质量 730.00 kg
干质量 700.00 kg
总质量 730.00 kg
长度 0.30 m
直径 4.10 m
跨度 29.00 m
形状 Box + pan
制造商 SPXS
平台类型 Starlink V2M
阶段状态 In Orbit
所有者/国家 SPXS/US

Most Searched